| time (UTC) | temp F | wind direction | speed MPH | gust MPH | rain 1hr in | rain 24hr in | rain mn in | humidity % | barometer mb |
| 20260509105113 | 61 | 20 | 0.0 | 1.0 | 0.00 | 0.00 | 0.00 | 87 | 1008.9 |
| 20260509104610 | 61 | 20 | 0.0 | 0.0 | 0.00 | 0.00 | 0.00 | 87 | 1008.9 |
| 20260509104108 | 61 | 20 | 0.0 | 0.0 | 0.00 | 0.00 | 0.00 | 87 | 1008.7 |
| 20260509103604 | 61 | 20 | 1.0 | 1.0 | 0.00 | 0.00 | 0.00 | 87 | 1008.8 |
| 20260509103102 | 61 | 8 | 1.0 | 2.0 | 0.00 | 0.00 | 0.00 | 87 | 1008.8 |
| 20260509102559 | 61 | 14 | 1.0 | 2.0 | 0.00 | 0.00 | 0.00 | 87 | 1008.8 |
| 20260509102056 | 60 | 1 | 1.0 | 2.0 | 0.00 | 0.00 | 0.00 | 87 | 1008.6 |
| 20260509101552 | 61 | 35 | 0.0 | 0.0 | 0.00 | 0.00 | 0.00 | 87 | 1008.1 |
| 20260509101049 | 60 | 35 | 0.0 | 2.0 | 0.00 | 0.00 | 0.00 | 87 | 1008.0 |
| 20260509100546 | 60 | 44 | 0.0 | 1.0 | 0.00 | 0.00 | 0.00 | 87 | 1007.9 |
| 20260509100044 | 60 | 43 | 0.0 | 0.0 | 0.00 | 0.00 | 0.00 | 87 | 1008.0 |
| 20260509095540 | 60 | 43 | 0.0 | 1.0 | 0.00 | 0.00 | 0.00 | 87 | 1007.6 |
| 20260509095038 | 60 | 43 | 0.0 | 0.0 | 0.00 | 0.00 | 0.00 | 86 | 1007.7 |
| 20260509094534 | 60 | 42 | 0.0 | 0.0 | 0.00 | 0.00 | 0.00 | 86 | 1007.9 |
| 20260509094031 | 60 | 43 | 1.0 | 1.0 | 0.00 | 0.00 | 0.00 | 86 | 1007.7 |
| 20260509093529 | 60 | 46 | 0.0 | 0.0 | 0.00 | 0.00 | 0.00 | 86 | 1007.4 |
| 20260509093027 | 60 | 46 | 0.0 | 0.0 | 0.00 | 0.00 | 0.00 | 86 | 1007.7 |
| 20260509092524 | 60 | 46 | 0.0 | 0.0 | 0.00 | 0.00 | 0.00 | 85 | 1007.4 |
| 20260509092023 | 60 | 46 | 0.0 | 1.0 | 0.00 | 0.00 | 0.00 | 85 | 1007.4 |
| 20260509091520 | 60 | 46 | 0.0 | 0.0 | 0.00 | 0.00 | 0.00 | 85 | 1007.4 |
| 20260509091016 | 60 | 46 | 0.0 | 0.0 | 0.00 | 0.00 | 0.00 | 85 | 1007.5 |
| 20260509090514 | 61 | 46 | 0.0 | 0.0 | 0.00 | 0.00 | 0.00 | 85 | 1007.4 |
| 20260509090012 | 61 | 46 | 0.0 | 0.0 | 0.00 | 0.00 | 0.00 | 85 | 1007.6 |
| 20260509085508 | 61 | 46 | 0.0 | 0.0 | 0.00 | 0.00 | 0.00 | 84 | 1007.6 |
| 20260509085004 | 61 | 46 | 0.0 | 1.0 | 0.00 | 0.00 | 0.00 | 84 | 1007.5 |
| 20260509084502 | 61 | 46 | 0.0 | 0.0 | 0.00 | 0.00 | 0.00 | 84 | 1007.7 |
| 20260509083959 | 61 | 46 | 0.0 | 0.0 | 0.00 | 0.00 | 0.00 | 84 | 1007.3 |
| 20260509083456 | 61 | 46 | 0.0 | 0.0 | 0.00 | 0.00 | 0.00 | 84 | 1007.4 |
| 20260509082952 | 61 | 46 | 0.0 | 1.0 | 0.00 | 0.00 | 0.00 | 84 | 1007.4 |
| 20260509082450 | 61 | 46 | 0.0 | 1.0 | 0.00 | 0.00 | 0.00 | 83 | 1007.4 |
| 20260509081947 | 61 | 46 | 0.0 | 1.0 | 0.00 | 0.00 | 0.00 | 83 | 1007.7 |
| 20260509081444 | 61 | 45 | 0.0 | 0.0 | 0.00 | 0.00 | 0.00 | 83 | 1007.7 |
| 20260509080941 | 61 | 49 | 0.0 | 0.0 | 0.00 | 0.00 | 0.00 | 83 | 1008.0 |
| 20260509080439 | 61 | 49 | 0.0 | 0.0 | 0.00 | 0.00 | 0.00 | 83 | 1007.7 |
| 20260509075937 | 61 | 49 | 0.0 | 0.0 | 0.00 | 0.00 | 0.00 | 83 | 1007.8 |
| 20260509075434 | 61 | 49 | 0.0 | 0.0 | 0.00 | 0.00 | 0.00 | 83 | 1007.8 |
| 20260509074932 | 61 | 49 | 0.0 | 0.0 | 0.00 | 0.00 | 0.00 | 83 | 1007.9 |
| 20260509074429 | 61 | 49 | 0.0 | 1.0 | 0.00 | 0.00 | 0.00 | 83 | 1007.9 |
| 20260509073925 | 61 | 49 | 0.0 | 1.0 | 0.00 | 0.00 | 0.00 | 83 | 1007.9 |
| 20260509073421 | 61 | 50 | 0.0 | 1.0 | 0.00 | 0.00 | 0.00 | 83 | 1008.1 |
| 20260509072918 | 61 | 50 | 0.0 | 0.0 | 0.00 | 0.00 | 0.00 | 83 | 1008.2 |
| 20260509072415 | 61 | 50 | 0.0 | 0.0 | 0.00 | 0.00 | 0.00 | 82 | 1008.1 |
| 20260509071911 | 61 | 50 | 0.0 | 0.0 | 0.00 | 0.00 | 0.00 | 82 | 1008.2 |
| 20260509071408 | 61 | 50 | 0.0 | 1.0 | 0.00 | 0.00 | 0.00 | 82 | 1008.1 |
| 20260509070906 | 61 | 50 | 0.0 | 1.0 | 0.00 | 0.00 | 0.00 | 82 | 1008.6 |
| 20260509070402 | 61 | 50 | 0.0 | 0.0 | 0.00 | 0.00 | 0.00 | 82 | 1008.4 |
| 20260509065858 | 61 | 50 | 0.0 | 0.0 | 0.00 | 0.00 | 0.00 | 82 | 1008.5 |
| 20260509065355 | 61 | 50 | 0.0 | 0.0 | 0.00 | 0.00 | 0.00 | 82 | 1008.4 |
| 20260509064850 | 61 | 50 | 0.0 | 0.0 | 0.00 | 0.00 | 0.00 | 82 | 1008.7 |
| 20260509064348 | 61 | 50 | 0.0 | 0.0 | 0.00 | 0.00 | 0.00 | 82 | 1008.6 |
| 20260509063846 | 61 | 50 | 0.0 | 0.0 | 0.00 | 0.00 | 0.00 | 82 | 1008.9 |
| 20260509063342 | 61 | 50 | 0.0 | 0.0 | 0.00 | 0.00 | 0.00 | 81 | 1008.8 |
| 20260509062839 | 61 | 50 | 0.0 | 0.0 | 0.00 | 0.00 | 0.00 | 81 | 1008.6 |
| 20260509062336 | 61 | 50 | 0.0 | 0.0 | 0.00 | 0.00 | 0.00 | 81 | 1008.8 |
| 20260509061833 | 61 | 50 | 0.0 | 0.0 | 0.00 | 0.00 | 0.00 | 80 | 1008.9 |
| 20260509061332 | 61 | 50 | 0.0 | 0.0 | 0.00 | 0.00 | 0.00 | 80 | 1009.1 |
| 20260509060828 | 61 | 50 | 0.0 | 0.0 | 0.00 | 0.00 | 0.00 | 80 | 1008.9 |
| 20260509060325 | 61 | 50 | 0.0 | 0.0 | 0.00 | 0.00 | 0.00 | 80 | 1009.2 |
| 20260509055820 | 61 | 50 | 0.0 | 0.0 | 0.00 | 0.00 | 0.00 | 80 | 1009.2 |
| 20260509055316 | 61 | 50 | 0.0 | 0.0 | 0.00 | 0.00 | 0.00 | 80 | 1009.2 |
| 20260509054813 | 62 | 50 | 0.0 | 1.0 | 0.00 | 0.00 | 0.00 | 79 | 1009.3 |
| 20260509054310 | 62 | 50 | 0.0 | 0.0 | 0.00 | 0.00 | 0.00 | 79 | 1009.3 |
| 20260509053808 | 62 | 50 | 0.0 | 0.0 | 0.00 | 0.00 | 0.00 | 79 | 1009.6 |
| 20260509053305 | 62 | 50 | 0.0 | 0.0 | 0.00 | 0.00 | 0.00 | 79 | 1009.7 |
| 20260509052803 | 61 | 50 | 0.0 | 0.0 | 0.00 | 0.00 | 0.00 | 79 | 1009.9 |
| 20260509052300 | 61 | 50 | 0.0 | 0.0 | 0.00 | 0.00 | 0.00 | 79 | 1009.7 |
| 20260509051758 | 61 | 50 | 0.0 | 0.0 | 0.00 | 0.00 | 0.00 | 80 | 1010.1 |
| 20260509051256 | 61 | 50 | 0.0 | 0.0 | 0.00 | 0.00 | 0.00 | 80 | 1009.8 |
| 20260509050752 | 61 | 50 | 0.0 | 1.0 | 0.00 | 0.00 | 0.00 | 80 | 1009.9 |
| 20260509050249 | 61 | 51 | 0.0 | 0.0 | 0.00 | 0.00 | 0.00 | 81 | 1010.0 |
| 20260509045746 | 61 | 51 | 0.0 | 0.0 | 0.00 | 0.00 | 0.00 | 81 | 1010.0 |
| 20260509045243 | 61 | 51 | 0.0 | 0.0 | 0.00 | 0.00 | 0.00 | 81 | 1009.9 |
| 20260509044740 | 62 | 52 | 0.0 | 0.0 | 0.00 | 0.00 | 0.00 | 82 | 1009.9 |
| 20260509044238 | 62 | 51 | 0.0 | 0.0 | 0.00 | 0.00 | 0.00 | 82 | 1010.0 |
| 20260509043734 | 62 | 51 | 0.0 | 0.0 | 0.00 | 0.00 | 0.00 | 81 | 1010.2 |
| 20260509043230 | 62 | 51 | 0.0 | 0.0 | 0.00 | 0.00 | 0.00 | 81 | 1010.0 |
| 20260509042726 | 62 | 52 | 0.0 | 0.0 | 0.00 | 0.00 | 0.00 | 80 | 1010.3 |
| 20260509042222 | 62 | 52 | 0.0 | 1.0 | 0.00 | 0.00 | 0.00 | 79 | 1009.8 |
| 20260509041719 | 62 | 51 | 0.0 | 0.0 | 0.00 | 0.00 | 0.00 | 79 | 1010.1 |
| 20260509041217 | 62 | 51 | 0.0 | 0.0 | 0.00 | 0.00 | 0.00 | 78 | 1010.4 |
| 20260509040715 | 62 | 51 | 0.0 | 0.0 | 0.00 | 0.00 | 0.00 | 77 | 1010.3 |
| 20260509040212 | 62 | 51 | 0.0 | 0.0 | 0.00 | 0.00 | 0.00 | 77 | 1010.2 |
| 20260509035708 | 62 | 51 | 0.0 | 0.0 | 0.00 | 0.00 | 0.00 | 78 | 1010.5 |
| 20260509035205 | 62 | 51 | 0.0 | 0.0 | 0.00 | 0.00 | 0.00 | 78 | 1010.5 |
| 20260509034702 | 62 | 51 | 0.0 | 0.0 | 0.00 | 0.00 | 0.00 | 79 | 1010.2 |
| 20260509034200 | 62 | 51 | 0.0 | 1.0 | 0.00 | 0.00 | 0.00 | 80 | 1010.5 |
| 20260509033657 | 62 | 51 | 0.0 | 0.0 | 0.00 | 0.00 | 0.00 | 80 | 1010.8 |
| 20260509033153 | 62 | 57 | 0.0 | 0.0 | 0.00 | 0.00 | 0.00 | 79 | 1010.8 |
| 20260509032651 | 62 | 57 | 0.0 | 0.0 | 0.00 | 0.00 | 0.00 | 79 | 1010.7 |
| 20260509032147 | 62 | 57 | 0.0 | 0.0 | 0.00 | 0.00 | 0.00 | 79 | 1010.4 |
| 20260509031645 | 62 | 57 | 0.0 | 0.0 | 0.00 | 0.00 | 0.00 | 80 | 1010.4 |
| 20260509031142 | 62 | 57 | 0.0 | 0.0 | 0.00 | 0.00 | 0.00 | 80 | 1010.4 |
| 20260509030641 | 62 | 57 | 0.0 | 0.0 | 0.00 | 0.00 | 0.00 | 80 | 1010.2 |
| 20260509030138 | 62 | 57 | 0.0 | 0.0 | 0.00 | 0.00 | 0.00 | 80 | 1010.1 |
| 20260509025633 | 62 | 57 | 0.0 | 0.0 | 0.00 | 0.00 | 0.00 | 80 | 1010.1 |
| 20260509025129 | 62 | 57 | 0.0 | 0.0 | 0.00 | 0.00 | 0.00 | 79 | 1010.2 |
| 20260509024625 | 63 | 57 | 0.0 | 0.0 | 0.00 | 0.00 | 0.00 | 79 | 1010.2 |
| 20260509024121 | 62 | 57 | 0.0 | 0.0 | 0.00 | 0.00 | 0.00 | 79 | 1010.1 |
| 20260509023620 | 63 | 57 | 0.0 | 0.0 | 0.00 | 0.00 | 0.00 | 79 | 1010.6 |
| 20260509023116 | 63 | 57 | 0.0 | 0.0 | 0.00 | 0.00 | 0.00 | 79 | 1010.5 |
| 20260509022612 | 63 | 57 | 0.0 | 0.0 | 0.00 | 0.00 | 0.00 | 79 | 1010.4 |
| 20260509022110 | 63 | 57 | 0.0 | 0.0 | 0.00 | 0.00 | 0.00 | 79 | 1010.3 |
| 20260509021607 | 63 | 57 | 0.0 | 0.0 | 0.00 | 0.00 | 0.00 | 78 | 1010.4 |
| 20260509021104 | 64 | 57 | 0.0 | 0.0 | 0.00 | 0.00 | 0.00 | 78 | 1010.3 |
| 20260509020603 | 64 | 57 | 0.0 | 0.0 | 0.00 | 0.00 | 0.00 | 77 | 1010.1 |
| 20260509020059 | 64 | 57 | 0.0 | 0.0 | 0.00 | 0.00 | 0.00 | 74 | 1010.4 |
| 20260509015558 | 64 | 57 | 0.0 | 0.0 | 0.00 | 0.00 | 0.00 | 72 | 1010.3 |
| 20260509015055 | 64 | 57 | 0.0 | 1.0 | 0.00 | 0.00 | 0.00 | 72 | 1010.3 |
| 20260509014551 | 64 | 57 | 0.0 | 1.0 | 0.00 | 0.00 | 0.00 | 72 | 1010.1 |
| 20260509014048 | 63 | 57 | 0.0 | 0.0 | 0.00 | 0.00 | 0.00 | 73 | 1010.1 |
| 20260509013545 | 63 | 57 | 0.0 | 0.0 | 0.00 | 0.00 | 0.00 | 74 | 1010.1 |
| 20260509013040 | 64 | 58 | 0.0 | 0.0 | 0.00 | 0.00 | 0.00 | 75 | 1010.1 |
| 20260509012537 | 64 | 58 | 0.0 | 0.0 | 0.00 | 0.00 | 0.00 | 76 | 1010.4 |
| 20260509012034 | 64 | 58 | 0.0 | 0.0 | 0.00 | 0.00 | 0.00 | 76 | 1010.2 |
| 20260509011532 | 64 | 58 | 0.0 | 0.0 | 0.00 | 0.00 | 0.00 | 76 | 1010.1 |
| 20260509011029 | 65 | 58 | 0.0 | 0.0 | 0.00 | 0.00 | 0.00 | 75 | 1010.0 |
| 20260509010527 | 65 | 58 | 0.0 | 0.0 | 0.00 | 0.00 | 0.00 | 75 | 1009.9 |
| 20260509010023 | 65 | 58 | 0.0 | 0.0 | 0.00 | 0.00 | 0.00 | 74 | 1009.9 |
| 20260509005521 | 65 | 58 | 0.0 | 0.0 | 0.00 | 0.00 | 0.00 | 74 | 1009.9 |
| 20260509005021 | 65 | 58 | 0.0 | 1.0 | 0.00 | 0.00 | 0.00 | 74 | 1009.7 |
| 20260509004518 | 66 | 58 | 0.0 | 0.0 | 0.00 | 0.00 | 0.00 | 74 | 1009.7 |
| 20260509004015 | 66 | 58 | 0.0 | 0.0 | 0.00 | 0.00 | 0.00 | 73 | 1009.9 |
| 20260509003514 | 66 | 58 | 0.0 | 0.0 | 0.00 | 0.00 | 0.00 | 73 | 1010.0 |
| 20260509003010 | 66 | 58 | 0.0 | 0.0 | 0.00 | 0.00 | 0.00 | 71 | 1009.9 |
| 20260509002508 | 66 | 58 | 0.0 | 0.0 | 0.00 | 0.00 | 0.00 | 68 | 1009.7 |
| 20260509002005 | 66 | 58 | 0.0 | 0.0 | 0.00 | 0.00 | 0.00 | 67 | 1009.6 |
| 20260509001502 | 66 | 58 | 0.0 | 0.0 | 0.00 | 0.00 | 0.00 | 67 | 1009.9 |
| 20260509000958 | 66 | 58 | 0.0 | 0.0 | 0.00 | 0.00 | 0.00 | 67 | 1009.7 |
| 20260509000457 | 67 | 58 | 0.0 | 0.0 | 0.00 | 0.00 | 0.00 | 67 | 1009.4 |
| 20260508235952 | 67 | 58 | 0.0 | 0.0 | 0.00 | 0.00 | 0.00 | 66 | 1009.4 |
| 20260508235450 | 67 | 58 | 0.0 | 0.0 | 0.00 | 0.00 | 0.00 | 67 | 1009.3 |
| 20260508234946 | 67 | 58 | 0.0 | 0.0 | 0.00 | 0.00 | 0.00 | 66 | 1009.2 |
| 20260508234443 | 67 | 58 | 0.0 | 0.0 | 0.00 | 0.00 | 0.00 | 66 | 1009.3 |
| 20260508233941 | 68 | 58 | 0.0 | 0.0 | 0.00 | 0.00 | 0.00 | 66 | 1009.4 |
| 20260508233440 | 68 | 58 | 0.0 | 0.0 | 0.00 | 0.00 | 0.00 | 65 | 1009.3 |
| 20260508232936 | 68 | 58 | 0.0 | 0.0 | 0.00 | 0.00 | 0.00 | 64 | 1009.5 |
| 20260508232434 | 68 | 58 | 0.0 | 0.0 | 0.00 | 0.00 | 0.00 | 63 | 1009.5 |
| 20260508231931 | 68 | 58 | 0.0 | 0.0 | 0.00 | 0.00 | 0.00 | 62 | 1009.5 |
| 20260508231428 | 68 | 58 | 0.0 | 0.0 | 0.00 | 0.00 | 0.00 | 62 | 1009.3 |
| 20260508230925 | 68 | 58 | 0.0 | 0.0 | 0.00 | 0.00 | 0.00 | 62 | 1009.4 |
| 20260508230421 | 69 | 58 | 0.0 | 0.0 | 0.00 | 0.00 | 0.00 | 61 | 1009.4 |
| 20260508225919 | 69 | 58 | 0.0 | 0.0 | 0.00 | 0.00 | 0.00 | 61 | 1009.6 |
| 20260508225415 | 69 | 58 | 0.0 | 0.0 | 0.00 | 0.00 | 0.00 | 59 | 1009.6 |
| 20260508224913 | 69 | 58 | 0.0 | 0.0 | 0.00 | 0.00 | 0.00 | 59 | 1009.3 |
| 20260508224410 | 69 | 58 | 0.0 | 0.0 | 0.00 | 0.00 | 0.00 | 58 | 1009.5 |
| 20260508223907 | 69 | 58 | 0.0 | 0.0 | 0.00 | 0.00 | 0.00 | 57 | 1009.5 |
| 20260508223405 | 69 | 58 | 0.0 | 1.0 | 0.00 | 0.00 | 0.00 | 56 | 1009.5 |
| 20260508222902 | 70 | 58 | 0.0 | 0.0 | 0.00 | 0.00 | 0.00 | 57 | 1009.6 |
| 20260508222359 | 70 | 58 | 0.0 | 0.0 | 0.00 | 0.00 | 0.00 | 57 | 1009.5 |
| 20260508221856 | 70 | 58 | 0.0 | 0.0 | 0.00 | 0.00 | 0.00 | 56 | 1009.2 |
| 20260508221351 | 70 | 58 | 0.0 | 1.0 | 0.00 | 0.00 | 0.00 | 54 | 1009.5 |
| 20260508220848 | 70 | 58 | 0.0 | 1.0 | 0.00 | 0.00 | 0.00 | 53 | 1009.1 |
| 20260508220344 | 71 | 57 | 0.0 | 1.0 | 0.00 | 0.00 | 0.00 | 54 | 1009.3 |
| 20260508215841 | 71 | 57 | 0.0 | 1.0 | 0.00 | 0.00 | 0.00 | 53 | 1009.3 |
| 20260508215338 | 71 | 57 | 0.0 | 1.0 | 0.00 | 0.00 | 0.00 | 52 | 1009.1 |
| 20260508214835 | 71 | 55 | 0.0 | 0.0 | 0.00 | 0.00 | 0.00 | 53 | 1009.3 |
| 20260508214332 | 71 | 55 | 0.0 | 1.0 | 0.00 | 0.00 | 0.00 | 52 | 1009.6 |
| 20260508213828 | 72 | 52 | 1.0 | 1.0 | 0.00 | 0.00 | 0.00 | 50 | 1009.7 |
| 20260508213325 | 72 | 51 | 0.0 | 0.0 | 0.00 | 0.00 | 0.00 | 52 | 1009.4 |
| 20260508212821 | 71 | 51 | 0.0 | 0.0 | 0.00 | 0.00 | 0.00 | 50 | 1009.7 |
| 20260508212318 | 71 | 51 | 0.0 | 0.0 | 0.00 | 0.00 | 0.00 | 51 | 1009.5 |
| 20260508211814 | 72 | 51 | 0.0 | 0.0 | 0.00 | 0.00 | 0.00 | 50 | 1009.5 |
| 20260508211309 | 72 | 47 | 0.0 | 0.0 | 0.00 | 0.00 | 0.00 | 50 | 1009.5 |
| 20260508210807 | 73 | 47 | 0.0 | 1.0 | 0.00 | 0.00 | 0.00 | 50 | 1009.3 |
| 20260508210304 | 72 | 43 | 0.0 | 1.0 | 0.00 | 0.00 | 0.00 | 48 | 1009.4 |
| 20260508205801 | 72 | 55 | 1.0 | 1.0 | 0.00 | 0.00 | 0.00 | 48 | 1009.4 |
| 20260508205257 | 72 | 55 | 1.0 | 1.0 | 0.00 | 0.00 | 0.00 | 48 | 1009.3 |
| 20260508204753 | 73 | 65 | 2.0 | 2.0 | 0.00 | 0.00 | 0.00 | 46 | 1009.6 |
| 20260508204250 | 73 | 47 | 0.0 | 0.0 | 0.00 | 0.00 | 0.00 | 47 | 1009.5 |
| 20260508203746 | 72 | 47 | 0.0 | 0.0 | 0.00 | 0.00 | 0.00 | 49 | 1009.6 |
| 20260508203243 | 72 | 59 | 0.0 | 2.0 | 0.00 | 0.00 | 0.00 | 48 | 1009.7 |
| 20260508202738 | 73 | 24 | 0.0 | 1.0 | 0.00 | 0.00 | 0.00 | 48 | 1010.0 |
| 20260508202236 | 73 | 26 | 1.0 | 1.0 | 0.00 | 0.00 | 0.00 | 48 | 1010.0 |
| 20260508201733 | 74 | 28 | 1.0 | 1.0 | 0.00 | 0.00 | 0.00 | 46 | 1010.0 |
| 20260508201229 | 73 | 54 | 0.0 | 0.0 | 0.00 | 0.00 | 0.00 | 48 | 1010.1 |
| 20260508200726 | 73 | 57 | 0.0 | 2.0 | 0.00 | 0.00 | 0.00 | 46 | 1009.9 |
| 20260508200222 | 73 | 45 | 0.0 | 1.0 | 0.00 | 0.00 | 0.00 | 46 | 1010.1 |
| 20260508195719 | 73 | 50 | 1.0 | 2.0 | 0.00 | 0.00 | 0.00 | 46 | 1009.9 |
| 20260508195215 | 74 | 51 | 1.0 | 1.0 | 0.00 | 0.00 | 0.00 | 46 | 1010.1 |
| 20260508194712 | 73 | 49 | 0.0 | 2.0 | 0.00 | 0.00 | 0.00 | 45 | 1010.1 |
| 20260508194209 | 74 | 53 | 1.0 | 3.0 | 0.00 | 0.00 | 0.00 | 44 | 1010.1 |
| 20260508193706 | 74 | 35 | 0.0 | 0.0 | 0.00 | 0.00 | 0.00 | 44 | 1010.1 |
| 20260508193203 | 73 | 35 | 0.0 | 1.0 | 0.00 | 0.00 | 0.00 | 45 | 1010.4 |
| 20260508192659 | 73 | 66 | 2.0 | 2.0 | 0.00 | 0.00 | 0.00 | 44 | 1010.2 |
| 20260508192156 | 73 | 66 | 2.0 | 2.0 | 0.00 | 0.00 | 0.00 | 44 | 1010.5 |
| 20260508191654 | 73 | 64 | 0.0 | 2.0 | 0.00 | 0.00 | 0.00 | 47 | 1010.5 |
| 20260508191150 | 73 | 74 | 2.0 | 2.0 | 0.00 | 0.00 | 0.00 | 46 | 1010.6 |
| 20260508190648 | 74 | 64 | 2.0 | 2.0 | 0.00 | 0.00 | 0.00 | 44 | 1010.7 |
| 20260508190144 | 73 | 29 | 0.0 | 3.0 | 0.00 | 0.00 | 0.00 | 44 | 1010.7 |
| 20260508185641 | 73 | 61 | 1.0 | 6.0 | 0.00 | 0.00 | 0.00 | 45 | 1010.9 |
| 20260508185138 | 72 | 24 | 1.0 | 2.0 | 0.00 | 0.00 | 0.00 | 46 | 1011.3 |
| 20260508184635 | 72 | 52 | 0.0 | 1.0 | 0.00 | 0.00 | 0.00 | 47 | 1011.2 |
| 20260508184132 | 73 | 74 | 2.0 | 2.0 | 0.00 | 0.00 | 0.00 | 44 | 1011.2 |
| 20260508183629 | 72 | 54 | 1.0 | 2.0 | 0.00 | 0.00 | 0.00 | 47 | 1011.3 |
| 20260508183125 | 73 | 65 | 2.0 | 3.0 | 0.00 | 0.00 | 0.00 | 44 | 1011.4 |
| 20260508182621 | 72 | 65 | 0.0 | 2.0 | 0.00 | 0.00 | 0.00 | 45 | 1011.5 |
| 20260508182118 | 72 | 71 | 2.0 | 2.0 | 0.00 | 0.00 | 0.00 | 45 | 1011.6 |
| 20260508181613 | 72 | 61 | 1.0 | 1.0 | 0.00 | 0.00 | 0.00 | 45 | 1011.6 |
| 20260508181111 | 72 | 68 | 2.0 | 2.0 | 0.00 | 0.00 | 0.00 | 44 | 1011.7 |
| 20260508180607 | 73 | 76 | 3.0 | 3.0 | 0.00 | 0.00 | 0.00 | 44 | 1011.8 |
| 20260508180103 | 72 | 74 | 1.0 | 2.0 | 0.00 | 0.00 | 0.00 | 47 | 1011.9 |
| 20260508175600 | 71 | 65 | 1.0 | 2.0 | 0.00 | 0.00 | 0.00 | 45 | 1011.7 |
| 20260508175058 | 71 | 60 | 2.0 | 2.0 | 0.00 | 0.00 | 0.00 | 43 | 1011.9 |
| 20260508174555 | 71 | 66 | 1.0 | 2.0 | 0.00 | 0.00 | 0.00 | 47 | 1012.0 |
| 20260508174052 | 71 | 57 | 1.0 | 2.0 | 0.00 | 0.00 | 0.00 | 44 | 1012.0 |
| 20260508173549 | 70 | 51 | 0.0 | 1.0 | 0.00 | 0.00 | 0.00 | 47 | 1011.9 |
| 20260508173045 | 71 | 85 | 2.0 | 2.0 | 0.00 | 0.00 | 0.00 | 45 | 1011.9 |
| 20260508172542 | 70 | 56 | 0.0 | 5.0 | 0.00 | 0.00 | 0.00 | 44 | 1011.9 |
| 20260508172039 | 71 | 32 | 0.0 | 1.0 | 0.00 | 0.00 | 0.00 | 44 | 1012.4 |
| 20260508171535 | 71 | 49 | 1.0 | 2.0 | 0.00 | 0.00 | 0.00 | 46 | 1012.2 |
| 20260508171032 | 70 | 46 | 0.0 | 1.0 | 0.00 | 0.00 | 0.00 | 48 | 1012.3 |
| 20260508170529 | 70 | 65 | 1.0 | 2.0 | 0.00 | 0.00 | 0.00 | 48 | 1012.5 |
| 20260508170026 | 70 | 81 | 2.0 | 2.0 | 0.00 | 0.00 | 0.00 | 46 | 1012.4 |
| 20260508165523 | 69 | 59 | 1.0 | 5.0 | 0.00 | 0.00 | 0.00 | 48 | 1012.7 |
| 20260508165020 | 69 | 59 | 0.0 | 1.0 | 0.00 | 0.00 | 0.00 | 51 | 1012.9 |
| 20260508164517 | 68 | 58 | 1.0 | 1.0 | 0.00 | 0.00 | 0.00 | 51 | 1012.8 |
| 20260508164013 | 68 | 58 | 1.0 | 1.0 | 0.00 | 0.00 | 0.00 | 51 | 1012.6 |
| 20260508163511 | 68 | 61 | 1.0 | 2.0 | 0.00 | 0.00 | 0.00 | 51 | 1012.9 |
| 20260508163007 | 68 | 64 | 0.0 | 1.0 | 0.00 | 0.00 | 0.00 | 50 | 1013.1 |
| 20260508162504 | 68 | 64 | 1.0 | 1.0 | 0.00 | 0.00 | 0.00 | 49 | 1013.2 |
| 20260508162001 | 69 | 57 | 1.0 | 2.0 | 0.00 | 0.00 | 0.00 | 50 | 1013.0 |
| 20260508161458 | 68 | 40 | 0.0 | 2.0 | 0.00 | 0.00 | 0.00 | 49 | 1012.9 |
| 20260508160955 | 68 | 57 | 1.0 | 2.0 | 0.00 | 0.00 | 0.00 | 49 | 1013.2 |
| 20260508160454 | 69 | 58 | 2.0 | 2.0 | 0.00 | 0.00 | 0.00 | 50 | 1013.3 |
| 20260508155950 | 69 | 54 | 0.0 | 2.0 | 0.00 | 0.00 | 0.00 | 50 | 1013.1 |
| 20260508155447 | 69 | 15 | 1.0 | 3.0 | 0.00 | 0.00 | 0.00 | 50 | 1013.0 |
| 20260508154944 | 68 | 57 | 0.0 | 1.0 | 0.00 | 0.00 | 0.00 | 51 | 1013.3 |
| 20260508154442 | 68 | 108 | 2.0 | 2.0 | 0.00 | 0.00 | 0.00 | 52 | 1013.2 |
| 20260508153938 | 68 | 79 | 2.0 | 2.0 | 0.00 | 0.00 | 0.00 | 50 | 1013.5 |
| 20260508153435 | 68 | 66 | 1.0 | 2.0 | 0.00 | 0.00 | 0.00 | 51 | 1013.6 |
| 20260508152931 | 68 | 57 | 0.0 | 2.0 | 0.00 | 0.00 | 0.00 | 51 | 1013.6 |
| 20260508152428 | 68 | 60 | 0.0 | 2.0 | 0.00 | 0.00 | 0.00 | 50 | 1013.4 |
| 20260508151924 | 68 | 80 | 2.0 | 2.0 | 0.00 | 0.00 | 0.00 | 51 | 1013.5 |
| 20260508151422 | 67 | 74 | 0.0 | 3.0 | 0.00 | 0.00 | 0.00 | 53 | 1013.4 |
| 20260508150918 | 67 | 51 | 1.0 | 2.0 | 0.00 | 0.00 | 0.00 | 52 | 1013.4 |
| 20260508150414 | 66 | 78 | 2.0 | 2.0 | 0.00 | 0.00 | 0.00 | 54 | 1013.5 |
| 20260508145910 | 67 | 80 | 1.0 | 2.0 | 0.00 | 0.00 | 0.00 | 56 | 1013.3 |
| 20260508145407 | 66 | 60 | 0.0 | 1.0 | 0.00 | 0.00 | 0.00 | 55 | 1013.4 |
| 20260508144904 | 66 | 60 | 1.0 | 2.0 | 0.00 | 0.00 | 0.00 | 53 | 1013.5 |
| 20260508144402 | 66 | 56 | 0.0 | 1.0 | 0.00 | 0.00 | 0.00 | 55 | 1013.5 |
| 20260508143859 | 66 | 57 | 0.0 | 1.0 | 0.00 | 0.00 | 0.00 | 56 | 1013.6 |
| 20260508143356 | 66 | 53 | 0.0 | 2.0 | 0.00 | 0.00 | 0.00 | 58 | 1013.5 |
| 20260508142853 | 65 | 67 | 1.0 | 2.0 | 0.00 | 0.00 | 0.00 | 56 | 1013.6 |
| 20260508142350 | 65 | 59 | 1.0 | 2.0 | 0.00 | 0.00 | 0.00 | 56 | 1013.3 |
| 20260508141846 | 65 | 65 | 1.0 | 2.0 | 0.00 | 0.00 | 0.00 | 56 | 1013.6 |
| 20260508141343 | 65 | 61 | 1.0 | 1.0 | 0.00 | 0.00 | 0.00 | 58 | 1013.6 |
| 20260508140841 | 65 | 60 | 1.0 | 1.0 | 0.00 | 0.00 | 0.00 | 60 | 1013.6 |
| 20260508140337 | 65 | 59 | 1.0 | 1.0 | 0.00 | 0.00 | 0.00 | 61 | 1013.6 |
| 20260508135833 | 64 | 59 | 0.0 | 1.0 | 0.00 | 0.00 | 0.00 | 59 | 1013.8 |
| 20260508135330 | 64 | 80 | 1.0 | 2.0 | 0.00 | 0.00 | 0.00 | 58 | 1013.6 |
| 20260508134826 | 64 | 76 | 1.0 | 2.0 | 0.00 | 0.00 | 0.00 | 57 | 1013.8 |
| 20260508134322 | 65 | 76 | 2.0 | 2.0 | 0.00 | 0.00 | 0.00 | 58 | 1013.3 |
| 20260508133819 | 65 | 72 | 1.0 | 2.0 | 0.00 | 0.00 | 0.00 | 60 | 1013.6 |
| 20260508133317 | 66 | 58 | 1.0 | 2.0 | 0.00 | 0.00 | 0.00 | 63 | 1013.5 |
| 20260508132814 | 66 | 66 | 1.0 | 1.0 | 0.00 | 0.00 | 0.00 | 64 | 1013.5 |
| 20260508132312 | 66 | 55 | 1.0 | 1.0 | 0.00 | 0.00 | 0.00 | 67 | 1013.4 |
| 20260508131808 | 66 | 69 | 1.0 | 2.0 | 0.00 | 0.00 | 0.00 | 66 | 1013.5 |
| 20260508131304 | 66 | 61 | 0.0 | 1.0 | 0.00 | 0.00 | 0.00 | 64 | 1013.5 |
| 20260508130800 | 66 | 54 | 1.0 | 1.0 | 0.00 | 0.00 | 0.00 | 68 | 1013.3 |
| 20260508130258 | 64 | 48 | 0.0 | 2.0 | 0.00 | 0.00 | 0.00 | 70 | 1013.2 |
| 20260508125754 | 63 | 103 | 3.0 | 3.0 | 0.00 | 0.00 | 0.00 | 71 | 1013.2 |
| 20260508125250 | 62 | 49 | 0.0 | 3.0 | 0.00 | 0.00 | 0.00 | 74 | 1013.1 |
| 20260508124749 | 61 | 67 | 0.0 | 2.0 | 0.00 | 0.00 | 0.00 | 81 | 1012.9 |
| 20260508124245 | 60 | 74 | 1.0 | 2.0 | 0.00 | 0.00 | 0.00 | 86 | 1012.8 |
| 20260508123743 | 59 | 71 | 1.0 | 1.0 | 0.00 | 0.00 | 0.00 | 90 | 1012.9 |
| 20260508123241 | 59 | 58 | 0.0 | 0.0 | 0.00 | 0.00 | 0.00 | 91 | 1013.0 |
| 20260508122737 | 59 | 58 | 0.0 | 0.0 | 0.00 | 0.00 | 0.00 | 91 | 1012.9 |
| 20260508122234 | 59 | 58 | 0.0 | 0.0 | 0.00 | 0.00 | 0.00 | 91 | 1012.8 |
| 20260508121731 | 59 | 58 | 0.0 | 0.0 | 0.00 | 0.00 | 0.00 | 91 | 1012.8 |
| 20260508121230 | 58 | 58 | 0.0 | 0.0 | 0.00 | 0.00 | 0.00 | 91 | 1012.7 |
| 20260508120726 | 58 | 58 | 0.0 | 0.0 | 0.00 | 0.00 | 0.00 | 91 | 1013.0 |
| 20260508120225 | 57 | 58 | 0.0 | 0.0 | 0.00 | 0.00 | 0.00 | 91 | 1012.6 |
| 20260508115722 | 57 | 58 | 0.0 | 0.0 | 0.00 | 0.00 | 0.00 | 91 | 1012.7 |
| 20260508115220 | 57 | 58 | 0.0 | 0.0 | 0.00 | 0.00 | 0.00 | 90 | 1012.5 |
| 20260508114716 | 57 | 58 | 0.0 | 0.0 | 0.00 | 0.00 | 0.00 | 90 | 1012.4 |
| 20260508114213 | 57 | 58 | 0.0 | 0.0 | 0.00 | 0.00 | 0.00 | 90 | 1012.6 |
| 20260508113709 | 56 | 58 | 0.0 | 0.0 | 0.00 | 0.00 | 0.00 | 90 | 1012.4 |
| 20260508113208 | 56 | 58 | 0.0 | 0.0 | 0.00 | 0.00 | 0.00 | 90 | 1012.1 |
| 20260508112703 | 56 | 58 | 0.0 | 0.0 | 0.00 | 0.00 | 0.00 | 90 | 1012.1 |
| 20260508112200 | 56 | 58 | 0.0 | 0.0 | 0.00 | 0.00 | 0.00 | 90 | 1012.0 |
| 20260508111657 | 56 | 58 | 0.0 | 0.0 | 0.00 | 0.00 | 0.00 | 90 | 1011.7 |
| 20260508111155 | 56 | 58 | 0.0 | 0.0 | 0.00 | 0.00 | 0.00 | 90 | 1011.8 |
| 20260508110652 | 56 | 58 | 0.0 | 0.0 | 0.00 | 0.00 | 0.00 | 90 | 1011.5 |
| 20260508110149 | 56 | 58 | 0.0 | 0.0 | 0.00 | 0.00 | 0.00 | 90 | 1011.5 |
| 20260508105643 | 56 | 58 | 0.0 | 0.0 | 0.00 | 0.00 | 0.00 | 90 | 1011.8 |